TimeGMT,TemperatureF,Dew PointF,Humidity,Sea Level PressureIn,VisibilityMPH,Wind Direction,Wind SpeedMPH,Gust SpeedMPH,PrecipitationIn,Events,Conditions,WindDirDegrees,DateUTC
12:50 AM,44.6,41.0,87,29.80,6.2,SSE,10.4,-,N/A,,Unknown,160,2012-11-22 00:50:00
1:50 AM,46.4,42.8,87,29.77,6.2,South,16.1,-,N/A,,Scattered Clouds,170,2012-11-22 01:50:00
2:50 AM,47,44,86,29.78,14,South,15.0,,,,Scattered Clouds,170,2012-11-22 02:50:00
2:50 AM,46.4,44.6,93,29.77,6.2,South,15.0,-,N/A,,Partly Cloudy,170,2012-11-22 02:50:00
3:50 AM,48.2,46.4,93,29.74,6.2,SSE,15.0,-,N/A,,Mostly Cloudy,160,2012-11-22 03:50:00
4:50 AM,48.2,46.4,93,29.71,6.2,SSE,16.1,-,N/A,,Unknown,160,2012-11-22 04:50:00
5:50 AM,51,46,76,29.71,19,South,16.1,,,,,170,2012-11-22 05:50:00
5:50 AM,50.0,46.4,87,29.68,6.2,South,16.1,-,N/A,,Mostly Cloudy,170,2012-11-22 05:50:00
6:50 AM,51.8,46.4,82,29.68,6.2,SSE,17.3,-,N/A,,Mostly Cloudy,160,2012-11-22 06:50:00
7:50 AM,51.8,46.4,82,29.65,6.2,South,19.6,-,N/A,,Mostly Cloudy,170,2012-11-22 07:50:00
8:50 AM,53,46,71,29.65,16,South,24.2,,,,Mostly Cloudy,170,2012-11-22 08:50:00
8:50 AM,51.8,46.4,82,29.65,6.2,South,24.2,-,N/A,,Scattered Clouds,170,2012-11-22 08:50:00
9:50 AM,53.6,46.4,77,29.62,6.2,South,26.5,-,N/A,,Mostly Cloudy,170,2012-11-22 09:50:00
10:50 AM,55.4,46.4,72,29.59,6.2,South,23.0,-,N/A,,Mostly Cloudy,170,2012-11-22 10:50:00
11:50 AM,55,47,66,29.57,10,South,23.0,,,Rain,Light Rain,180,2012-11-22 11:50:00
11:50 AM,55.4,46.4,72,29.56,6.2,South,23.0,36.8,N/A,Rain,Light Rain,180,2012-11-22 11:50:00
12:50 PM,55.4,48.2,77,29.50,6.2,South,27.6,41.4,N/A,,Mostly Cloudy,170,2012-11-22 12:50:00
1:50 PM,53.6,48.2,82,29.47,6.2,South,26.5,40.3,N/A,Rain,Light Rain,170,2012-11-22 13:50:00
2:50 PM,54,47,71,29.46,9,South,28.8,,,Rain,Light Rain,170,2012-11-22 14:50:00
2:50 PM,53.6,48.2,82,29.44,6.2,South,28.8,41.4,N/A,Rain,Light Rain,170,2012-11-22 14:50:00
3:50 PM,53.6,48.2,82,29.42,5.0,South,28.8,41.4,N/A,Rain,Rain,180,2012-11-22 15:50:00
4:50 PM,48.2,44.6,87,29.47,5.6,SW,19.6,-,N/A,Rain,Rain,220,2012-11-22 16:50:00
5:50 PM,46,42,83,29.51,6,SW,17.3,,,Rain,Rain,230,2012-11-22 17:50:00
5:50 PM,46.4,42.8,87,29.50,5.6,SW,17.3,-,N/A,Rain,Rain,230,2012-11-22 17:50:00
6:50 PM,44.6,42.8,93,29.50,5.6,SW,13.8,-,N/A,Rain,Rain,230,2012-11-22 18:50:00
7:50 PM,44.6,42.8,93,29.53,6.2,SSW,10.4,-,N/A,Rain,Light Rain,210,2012-11-22 19:50:00
8:50 PM,44,40,81,29.55,28,South,16.1,,,Rain,Rain,190,2012-11-22 20:50:00
8:50 PM,44.6,41.0,87,29.53,6.2,South,16.1,-,N/A,,Mostly Cloudy,190,2012-11-22 20:50:00
9:50 PM,44.6,39.2,81,29.53,6.2,South,15.0,-,N/A,,Mostly Cloudy,190,2012-11-22 21:50:00
10:50 PM,44.6,39.2,81,29.56,6.2,South,12.7,-,N/A,,Mostly Cloudy,190,2012-11-22 22:50:00
11:50 PM,44,39,76,29.58,25,South,18.4,,,Rain,Rain,190,2012-11-22 23:50:00
11:50 PM,44.6,39.2,81,29.56,6.2,South,18.4,-,N/A,,Partly Cloudy,190,2012-11-22 23:50:00